Погода в Новочеремшанске

Россия / Ульяновская область     54°21′26″N   50°09′42″E
темп.,
°C
ветер,
м/с
пор.,
м/с
влажн.,
%
обл.,
%
осадки,
мм/ч
давл.,
гПа
погр.,
м
17 апреля, сб
сб1701:00+11всв511846 0.0 1022309
04:00+9св510905 0.0 1023262
07:00+8св510865 0.0 1023306
10:00+12св68624 0.0 1023585
13:00+15всв67435 0.0 10231024
16:00+16св66404 0.0 10221202
19:00+13св59463 0.0 1022380
22:00+9св511522 0.0 1022281
18 апреля, вс
вс1801:00+7св512555 0.0 1021305
04:00+5св39644 0.0 1022213
07:00+5св511655 0.0 1022332
10:00+10всв68450 0.0 1021769
13:00+13всв67353 0.0 10211265
16:00+14всв67340 0.0 10211587
19:00+12всв6104672 0.0 1021542
22:00+7всв7126512 0.0 1024590
19 апреля, пн
пн1901:00+6всв5116196 0.0 1025502
04:00+4всв61170100 0.0 1026534
07:00+2всв71360100 0.0 1027621
10:00+5всв81056100 0.0 1028913
13:00+7в8956100 0.0 10281203
16:00+7в7958100 0.0 10281185
19:00+6в6106195 0.0 10291162
22:00+6в5115772 0.0 1030571
20 апреля, вт
вт2001:00+3в6135549 0.0 1031442
04:00+2вюв613554 0.0 1032447
07:00+1вюв613510 0.0 1033602
10:00+5вюв810350 0.0 1034991
13:00+8вюв810280 0.0 10331302
16:00+10юв810271 0.0 10311451
19:00+8вюв71135100 0.0 1030798
22:00+6юв71441100 0.0 1031620
21 апреля, ср
ср2101:00+5юв71645100 0.0 1030595
04:00+3юв71648100 0.0 1031572
07:00+3юв81749100 0.0 1030619
10:00+7ююв101540100 0.0 1029825
13:00+10ююв91435100 0.0 10291110
16:00+9ююв81340100 0.0 10291076
19:00+8ю71347100 0.0 1029912
22:00+7ю51252100 0.0 1029895